Location: Blackwater Beach
(38.5801°N, 75.1577°W)
Time: 03:28:55
(UTC+00:00)

Cosmos 2297 Rocket - Pass Details

Date: 17 May 2026
Orbit: 838 x 842 km, 71.0° (Epoch: 9 June)

Event Time Altitude Azimuth Distance (km) Brightness Sun altitude
Exits shadow 04:17:44 55° 25° (NNE) 1,000 2.7 -31.4°
Drops below altitude 10° 04:22:06 10° 23° (NNE) 2,460 5.2 -31.5°
Sets 04:24:33 0° 23° (NNE) 3,399 6.1 -31.6°
